This demonstration page uses our WeatherBlox Daily Observations layout. Learn more.

Hourly Observations for August 23, 2017

Temp ( °F °C ) Dew Point ( °F °C ) Humidity (%) Winds ( mph kmh ) Pressure ( in mb ) Visibility ( mi km ) Precip ( " mm )
12:54 am 00:54 Clear 58 14.4 54 12.2 87 87 Calm 30.17 1022 10 16.0934 0 0
1:54 am 01:54 Clear 56 13.3 53 11.7 90 90 Calm 30.17 1022 10 16.0934 0 0
2:54 am 02:54 Clear 56 13.3 53 11.7 90 90 Calm 30.17 1022 10 16.0934 0 0
3:54 am 03:54 Clear 56 13.3 54 12.2 93 93 Calm 30.16 1021 10 16.0934 0 0
4:54 am 04:54 Clear 56 13.3 54 12.2 93 93 W 3 6 30.16 1021 10 16.0934 0 0
5:54 am 05:54 Clear 53 11.7 50 10 89 89 Calm 30.16 1021 10 16.0934 0 0
6:54 am 06:54 Sunny 54 12.2 52 11.1 93 93 Calm 30.16 1021 10 16.0934 0 0
7:54 am 07:54 Sunny 57 13.9 55 12.8 93 93 SSW 3 6 30.16 1021 10 16.0934 0 0
8:54 am 08:54 Sunny 64 17.8 55 12.8 73 73 Calm 30.17 1022 10 16.0934 0 0
9:54 am 09:54 Sunny 67 19.4 57 13.9 71 71 SSW 5 7 30.17 1022 10 16.0934 0 0
10:54 am 10:54 Sunny 72 22.2 55 12.8 55 55 SSW 6 9 30.16 1021 10 16.0934 0 0
11:54 am 11:54 Sunny 75 23.9 55 12.8 50 50 SSW 6 9 30.15 1021 10 16.0934 0 0
12:54 pm 12:54 Sunny 77 25 56 13.3 48 48 S 8 13 30.14 1021 10 16.0934 0 0
1:54 pm 13:54 Sunny 78 25.6 56 13.3 47 47 undefined N/A 30.12 1020 10 16.0934 0 0
2:54 pm 14:54 Sunny 79 26.1 56 13.3 45 45 SSW 9 15 30.09 1019 10 16.0934 0 0
3:54 pm 15:54 Sunny 80 26.7 57 13.9 45 45 S 9 15 30.06 1018 10 16.0934 0 0
4:54 pm 16:54 Sunny 79 26.1 57 13.9 47 47 SSE 7 11 30.05 1018 10 16.0934 0 0
5:54 pm 17:54 Sunny 79 26.1 57 13.9 47 47 SSE 9 15 30.04 1017 10 16.0934 0 0
6:54 pm 18:54 Sunny 77 25 58 14.4 52 52 S 8 13 30.01 1016 10 16.0934 0 0
7:54 pm 19:54 Sunny 74 23.3 58 14.4 57 57 SE 7 11 30.01 1016 10 16.0934 0 0
8:54 pm 20:54 Clear 72 22.2 58 14.4 61 61 SE 8 13 30.01 1016 10 16.0934 0 0
9:54 pm 21:54 Clear 73 22.8 58 14.4 59 59 SSE 9 15 30.01 1016 10 16.0934 0 0
10:54 pm 22:54 Clear 66 18.9 59 15 78 78 S 9 15 30.02 1017 10 16.0934 0 0
11:54 pm 23:54 Clear 63 17.2 58 14.4 84 84 S 9 15 30.02 1017 10 16.0934 0 0

Powered by AerisWeather